CW3999 Weather Reports


time (UTC)temp
F
wind
direction
speed
knots
gust
knots
rain 1hr
in
rain 24hr
in
rain mn
in
humidity
%
barometer
mb
20260505093802 52 234 0.0 0.0 0.00 0.00 0.00 100 1012.7
20260505093302 52 234 0.0 0.0 0.00 0.00 0.00 100 1012.5
20260505092305 52 234 0.0 0.0 0.00 0.00 0.00 100 1012.5
20260505091803 52 234 0.0 0.0 0.00 0.00 0.00 100 1012.5
20260505090302 53 234 0.0 0.0 0.00 0.00 0.00 100 1012.3
20260505085802 53 234 0.0 0.0 0.00 0.00 0.00 100 1012.3
20260505085304 53 234 0.0 0.0 0.00 0.00 0.00 100 1012.3
20260505084302 53 234 0.0 0.0 0.00 0.00 0.00 100 1012.2
20260505083803 53 234 0.0 0.0 0.00 0.00 0.00 100 1012.2
20260505082804 53 234 0.0 0.0 0.00 0.00 0.00 100 1012.2
20260505082304 53 234 0.0 0.0 0.00 0.00 0.00 100 1012.2
20260505081804 53 234 0.0 0.0 0.00 0.00 0.00 100 1012.2
20260505081310 53 234 0.0 0.0 0.00 0.00 0.00 100 1012.1
20260505080803 54 234 0.0 0.0 0.00 0.00 0.00 100 1011.9
20260505080302 54 234 0.0 0.0 0.00 0.00 0.00 100 1012.0
20260505075304 54 234 0.0 0.0 0.00 0.00 0.00 100 1011.9
20260505074802 54 234 0.0 0.0 0.00 0.00 0.00 100 1011.8
20260505074301 54 234 0.0 0.0 0.00 0.00 0.00 100 1011.7
20260505073803 54 234 0.0 0.0 0.00 0.00 0.00 100 1011.7
20260505073303 55 234 0.0 0.0 0.00 0.00 0.00 100 1011.6
20260505072302 55 234 0.0 0.0 0.00 0.00 0.00 100 1011.5
20260505071804 55 234 0.0 0.0 0.00 0.00 0.00 100 1011.5
20260505071303 56 234 0.0 0.0 0.00 0.00 0.00 100 1011.4
20260505070755 56 234 0.0 0.0 0.00 0.00 0.00 100 1011.4
20260505065755 57 234 0.0 0.0 0.00 0.00 0.00 100 1011.2
20260505065251 57 234 0.0 0.0 0.00 0.00 0.00 100 1011.2
20260505064747 58 234 0.0 0.0 0.00 0.00 0.00 100 1011.0
20260505064245 58 234 0.0 0.0 0.00 0.00 0.00 100 1011.0
20260505063731 58 234 0.0 0.0 0.00 0.00 0.00 100 1011.0
20260505062731 59 234 0.0 0.0 0.00 0.00 0.00 3 1010.7
20260505062227 59 234 0.0 0.0 0.00 0.00 0.00 2 1010.7
20260505061724 59 234 0.0 0.0 0.00 0.00 0.00 4 1010.7
20260505060717 60 234 0.0 0.0 0.00 0.00 0.00 9 1010.5
20260505060219 60 234 0.0 0.0 0.00 0.00 0.00 9 1010.6
20260505055215 60 234 0.0 0.0 0.00 0.00 0.00 12 1010.5
20260505054215 61 234 0.0 0.0 0.00 0.00 0.00 16 1010.6
20260505053710 61 234 0.0 0.0 0.00 0.00 0.00 19 1010.6
20260505053204 61 234 0.0 0.0 0.00 0.00 0.00 20 1010.5
20260505052704 62 234 0.0 0.0 0.00 0.00 0.00 20 1010.4
20260505052203 62 234 0.0 0.0 0.00 0.00 0.00 21 1010.4
20260505051703 62 234 0.0 0.0 0.00 0.00 0.00 21 1010.3
20260505051203 62 234 0.0 0.0 0.00 0.00 0.00 20 1010.3
20260505050203 62 234 0.0 0.0 0.00 0.00 0.00 21 1010.2
20260505041702 65 232 0.0 0.0 0.00 0.00 0.00 33 1009.7
20260505041203 65 232 0.0 0.0 0.00 0.00 0.00 34 1009.6
20260505040702 65 232 0.0 0.0 0.00 0.00 0.00 35 1009.5
20260505040202 66 232 0.0 0.0 0.00 0.00 0.00 37 1009.5
20260505035703 66 232 0.0 0.0 0.00 0.00 0.00 38 1009.4
20260505035204 66 232 0.0 0.0 0.00 0.00 0.00 38 1009.2
20260505034702 66 232 0.0 0.0 0.00 0.00 0.00 37 1009.2
20260505034202 66 232 0.0 0.0 0.00 0.00 0.00 37 1009.1
20260505033702 67 232 0.0 0.0 0.00 0.00 0.00 37 1009.0
20260505032702 67 232 0.0 0.0 0.00 0.00 0.00 41 1008.8
20260505031705 68 232 0.0 0.0 0.00 0.00 0.00 43 1008.8
20260505031204 68 232 0.0 0.0 0.00 0.00 0.00 44 1008.7
20260505030201 69 232 0.0 0.0 0.00 0.00 0.00 48 1008.5
20260505025704 69 232 0.0 0.0 0.00 0.00 0.00 48 1008.5
20260505025203 69 232 0.0 0.0 0.00 0.00 0.00 48 1008.5
20260505024703 70 232 0.0 0.0 0.00 0.00 0.00 48 1008.4
20260505024203 70 232 0.0 0.0 0.00 0.00 0.00 48 1008.4
20260505023647 70 232 0.0 0.0 0.00 0.00 0.00 48 1008.3
20260505023147 71 232 0.0 0.0 0.00 0.00 0.00 50 1008.4
20260505022629 71 232 0.0 0.0 0.00 0.00 0.00 50 1008.4
20260505022133 71 232 0.0 0.0 0.00 0.00 0.00 50 1008.3
20260505021632 71 232 0.0 0.0 0.00 0.00 0.00 50 1008.3
20260505021132 71 232 0.0 0.0 0.00 0.00 0.00 50 1008.3
20260505020130 72 232 0.0 0.0 0.00 0.00 0.00 51 1008.3
20260505015123 72 234 0.0 0.0 0.00 0.00 0.00 50 1008.3
20260505014622 72 234 0.0 0.0 0.00 0.00 0.00 51 1008.2
20260505014124 72 234 0.0 0.0 0.00 0.00 0.00 50 1008.2
20260505013607 73 234 0.0 0.0 0.00 0.00 0.00 49 1008.3
20260505013103 73 234 0.0 0.0 0.00 0.00 0.00 49 1008.3
20260505012602 73 234 0.0 0.0 0.00 0.00 0.00 49 1008.3
20260505012101 73 234 0.0 0.0 0.00 0.00 0.00 49 1008.3
20260505011102 73 234 0.0 0.0 0.00 0.00 0.00 51 1008.4
20260505010604 73 282 0.0 0.0 0.00 0.00 0.00 51 1008.5
20260505010104 74 282 0.0 0.0 0.00 0.00 0.00 51 1008.5
20260505005601 74 282 0.0 0.0 0.00 0.00 0.00 50 1008.5
20260505005103 74 282 0.0 0.0 0.00 0.00 0.00 50 1008.5
20260505004604 74 282 0.0 0.0 0.00 0.00 0.00 49 1008.6
20260505004105 74 282 0.0 0.0 0.00 0.00 0.00 51 1008.6
20260505003602 74 282 0.0 0.0 0.00 0.00 0.00 51 1008.6
20260505003101 74 282 0.0 0.0 0.00 0.00 0.00 50 1008.6
20260505002602 74 282 0.0 0.0 0.00 0.00 0.00 50 1008.6
20260505002103 74 282 0.0 0.0 0.00 0.00 0.00 51 1008.5
20260505001102 74 282 0.0 0.0 0.00 0.00 0.00 51 1008.6
20260505000600 75 282 0.0 0.0 0.00 0.00 0.00 52 1008.8
20260505000104 75 282 0.0 0.0 0.00 0.00 0.00 51 1008.8
20260504235103 75 282 0.0 0.0 0.00 0.00 0.00 52 1008.8
20260504234600 75 282 0.0 0.0 0.00 0.00 0.00 52 1008.8
20260504233602 75 299 0.0 0.0 0.00 0.00 0.00 52 1008.9
20260504233101 75 299 0.0 0.0 0.00 0.00 0.00 51 1009.0
20260504232602 75 299 0.0 0.0 0.00 0.00 0.00 52 1009.1
20260504232102 75 300 0.0 0.0 0.00 0.00 0.00 52 1009.0
20260504231103 76 304 0.0 0.0 0.00 0.00 0.00 52 1009.1
20260504230602 76 304 0.0 0.0 0.00 0.00 0.00 52 1009.1
20260504225603 77 305 0.0 0.0 0.00 0.00 0.00 52 1009.2
20260504225103 77 305 0.0 0.0 0.00 0.00 0.00 52 1009.3
20260504224602 76 305 0.0 0.0 0.00 0.00 0.00 52 1009.4
20260504224101 76 305 0.0 0.0 0.00 0.00 0.00 51 1009.4
20260504223604 76 305 0.0 0.0 0.00 0.00 0.00 51 1009.5
20260504222603 76 305 0.0 0.0 0.00 0.00 0.00 52 1009.6
20260504221602 76 305 0.0 0.0 0.00 0.00 0.00 52 1009.7
20260504221102 76 305 0.0 0.0 0.00 0.00 0.00 51 1009.8
20260504220603 75 305 0.0 0.0 0.00 0.00 0.00 50 1009.9
20260504215104 73 305 0.0 0.0 0.00 0.00 0.00 50 1010.0
20260504214559 73 305 0.0 0.0 0.00 0.00 0.00 52 1010.1
20260504214054 73 305 0.0 0.0 0.00 0.00 0.00 51 1010.1
20260504213047 73 305 0.0 0.0 0.00 0.00 0.00 50 1010.3
20260504212547 72 305 0.0 0.0 0.00 0.00 0.00 51 1010.3
20260504212043 72 305 0.0 0.0 0.00 0.00 0.00 50 1010.4
20260504211539 72 305 0.0 0.0 0.00 0.00 0.00 46 1010.4
20260504211032 71 305 0.0 0.0 0.00 0.00 0.00 50 1010.6
20260504210531 71 305 0.0 0.0 0.00 0.00 0.00 48 1010.7
20260504210029 71 305 0.0 0.0 0.00 0.00 0.00 47 1010.8
20260504205530 70 305 0.0 0.0 0.00 0.00 0.00 46 1010.8
20260504204530 69 305 0.0 0.0 0.00 0.00 0.00 45 1011.1
20260504204030 69 305 0.0 0.0 0.00 0.00 0.00 45 1011.1
20260504203530 69 305 0.0 0.0 0.00 0.00 0.00 45 1011.1
20260504203030 68 305 0.0 0.0 0.00 0.00 0.00 45 1011.2
20260504202531 69 305 0.0 0.0 0.00 0.00 0.00 47 1011.2
20260504202029 69 305 0.0 0.0 0.00 0.00 0.00 40 1011.2
20260504201529 69 305 0.0 0.0 0.00 0.00 0.00 44 1011.3
20260504201029 69 305 0.0 0.0 0.00 0.00 0.00 42 1011.4
20260504200529 68 305 0.0 0.0 0.00 0.00 0.00 45 1011.4
20260504200029 68 305 0.0 0.0 0.00 0.00 0.00 44 1011.5
20260504195530 67 305 0.0 0.0 0.00 0.00 0.00 38 1011.5
20260504195030 67 305 0.0 0.0 0.00 0.00 0.00 40 1011.6
20260504194529 67 305 0.0 0.0 0.00 0.00 0.00 37 1011.6
20260504194029 67 305 0.0 0.0 0.00 0.00 0.00 38 1011.5
20260504193530 66 305 0.0 0.0 0.00 0.00 0.00 29 1011.6
20260504193030 66 305 0.0 0.0 0.00 0.00 0.00 36 1011.7
20260504192532 65 305 0.0 0.0 0.00 0.00 0.00 32 1011.7
20260504191530 64 305 0.0 0.0 0.00 0.00 0.00 29 1011.8
20260504190529 64 312 0.0 0.0 0.00 0.00 0.00 12 1011.9
20260504190029 63 312 0.0 0.0 0.00 0.00 0.00 15 1011.9
20260504185531 62 312 0.0 0.0 0.00 0.00 0.00 15 1011.9
20260504185030 62 312 0.0 0.0 0.00 0.00 0.00 13 1012.0
20260504184529 62 312 0.0 0.0 0.00 0.00 0.00 16 1012.0
20260504184030 62 315 0.0 0.0 0.00 0.00 0.00 7 1012.1
20260504183530 62 315 0.0 0.0 0.00 0.00 0.00 8 1012.1
20260504183029 62 315 0.0 0.0 0.00 0.00 0.00 6 1012.0
20260504182528 62 315 0.0 0.0 0.00 0.00 0.00 5 1012.0
20260504182030 62 315 0.0 0.0 0.00 0.00 0.00 5 1011.9
20260504181523 62 315 0.0 0.0 0.00 0.00 0.00 2 1011.9
20260504181019 62 315 0.0 0.0 0.00 0.00 0.00 100 1012.0
20260504180514 61 315 0.0 0.0 0.00 0.00 0.00 100 1012.1
20260504180014 61 315 0.0 0.0 0.00 0.00 0.00 100 1012.1
20260504175003 61 315 0.0 0.0 0.00 0.00 0.00 100 1012.0
20260504174504 61 315 0.0 0.0 0.00 0.00 0.00 100 1012.0
20260504174001 61 315 0.0 0.0 0.00 0.00 0.00 100 1012.0
20260504173505 61 315 0.0 0.0 0.00 0.00 0.00 100 1012.0
20260504173005 60 315 0.0 0.0 0.00 0.00 0.00 100 1012.0
20260504172002 60 315 0.0 0.0 0.00 0.00 0.00 100 1011.9
20260504171502 60 316 0.0 0.0 0.00 0.00 0.00 100 1011.9
20260504171004 60 315 0.0 0.0 0.00 0.00 0.00 100 1011.9
20260504170503 60 315 0.0 0.0 0.00 0.00 0.00 100 1011.9
20260504160432 60 315 0.0 0.0 0.00 0.00 0.00 100 1011.8
20260504150430 58 315 0.0 0.0 0.00 0.00 0.00 100 1011.4
20260504140904 54 261 0.0 0.0 0.00 0.00 0.00 100 1010.7
20260504140401 54 261 0.0 0.0 0.00 0.00 0.00 100 1010.7
20260504130403 53 261 0.0 0.0 0.00 0.00 0.00 100 1009.8
20260504110329 58 261 0.0 0.0 0.00 0.00 0.00 100 1007.9
20260504100303 60 261 0.0 0.0 0.00 0.00 0.00 33 1007.1